Regional Weather Roundup
Issued by NWS Portland, ME

Current Version | Previous Version | Text Only | Print | Product List | Glossary Off
Versions: 1 2 3 4 5 6 7 8 9 10 11 12 13 14 15 16 17 18 19 20 21 22 23 24 25 26 27 28 29 30 31 32 33 34 35 36 37 38 39 40 41 42 43 44 45 46 47 48 49 50
000 ASUS41 KGYX 211005 RWRGYX WEATHER ROUNDUP FOR MAINE AND NEW HAMPSHIRE NATIONAL WEATHER SERVICE GRAY ME 600 AM EDT MON MAY 21 2018 MEZ002-005-006-010-012-015-018-020-021-024-026-027-029-211100- MAINE CITY SKY/WX TMP DP RH WIND PRES REMARKS PORTLAND FAIR 46 45 96 CALM 30.09R SANFORD FAIR 41 40 96 CALM 30.10R BAR HARBOR FAIR 50 41 71 CALM 30.04R WISCASSET FAIR 44 43 96 CALM 30.08R ROCKLAND FAIR 46 42 86 W5 30.06R FRYEBURG FAIR 42 41 96 CALM 30.09R LEWISTONAUBURN FAIR 46 42 86 CALM 30.09R AUGUSTA FAIR 50 41 71 W6 30.07R WATERVILLE FAIR 46 41 82 W3 30.04R BANGOR FAIR 50 40 68 W6 30.04S GREENVILLE N/A 48 32 53 NW9 30.01S MILLINOCKET FAIR 43 36 76 CALM 30.03R HOULTON FAIR 35 34 96 S3 29.98R PRESQUE ISLE FAIR 39 33 79 S6 29.97S FRENCHVILLE FAIR 44 29 55 W7 29.92S CARIBOU FAIR 41 32 70 SW5 29.95R $$ NHZ002-005-008-009-011-012-014-211100- NEW HAMPSHIRE CITY SKY/WX TMP DP RH WIND PRES REMARKS PORTSMOUTH CLEAR 48 47 95 W3 30.09R ROCHESTER FAIR 50 46 86 CALM 30.09R NASHUA FAIR 50 46 86 NW8 30.13R MANCHESTER FAIR 53 46 77 CALM 30.10R CONCORD FAIR 46 44 93 NW5 30.12R LACONIA FAIR 50 43 77 W5 30.12R PLYMOUTH FAIR 44 43 96 CALM 30.12R BERLIN FAIR 36 35 96 SE3 30.10S WHITEFIELD FAIR 35 34 96 CALM 30.13R JAFFREY FAIR 44 44 100 CALM 30.13R KEENE FOG 42 40 92 CALM 30.15R VSB 1/4 LEBANON FOG 44 41 89 S5 30.14R VSB 1/4 MT WASHINGTON NOT AVBL $$ VTZ005-007-008-211100- VERMONT CITY SKY/WX TMP DP RH WIND PRES REMARKS ST JOHNSBURY N/A 40 40 100 MISG 30.12R MONTPELIER FAIR 40 40 100 CALM 30.17R BURLINGTON FAIR 45 42 89 E5 30.14R $$ MAZ007-012-024-CTZ003-RIZ002-NYZ038-NYZ072-211100- SOUTHERN NEW ENGLAND AND NY CITY SKY/WX TMP DP RH WIND PRES REMARKS BOSTON FAIR 57 48 72 NW12 30.11R WORCESTER FAIR 53 41 63 N12 30.13R NANTUCKET FAIR 57 53 86 N12 30.08R PROVIDENCE FAIR 56 48 74 N8 30.12R HARTFORD FAIR 53 51 93 NW6 30.14R ALBANY FAIR 49 46 90 CALM 30.16R NEW YORK CITY FAIR 61 52 72 N6 30.14R $$ ANZ081-ANZ082-ANZ150-NHZ014-MEZ023>029-211100- COASTAL MARINE OBSERVATIONS STATION/POSITION TIME TEMP WIND PRES WAVE AIR SEA DIR/SP/G HT/PER (UTC) (F) (DEG/KT/KT) (MB) (FT/S) MOUNT DESERT ROC 1000 51 260/ 7/ 7 1017.7R MATINICUS ROCK 0900 52 310/ 13/ 13 1017.2R ISLE OF SHOALS 0900 56 300/ 5/ 5 1018.4R JEFFREYS LEDGE 0936 50 N/A 3/ 8 CASHES LEDGE BUO 0950 53 49 1018.1 $$ .............KEY.............. WCI - WIND CHILL TC - TEMPERATURE IN CELSIUS VSB - VISIBILITY IN MILES HX - HEAT INDEX FAIR- INDICATES FEW OR NO CLOUDS BELOW 12,000 FT, WITH NO SIGNIFICANT WEATHER AND/OR OBSTRUCTIONS TO VISIBILITY.

USA.gov is the U.S. government's official web portal to all federal, state and local government web resources and services.